Find Starlink 32920

NORAD ID: 62925 Int'l Des: 2025-027 Owner: SPXS Country: US Constellation: starlink operational
LEOCIRCULAR

リアルタイム位置

3D地球を読み込み中...

Starlink 32920について

説明を読み込み中...

次回通過

Passes for default location (London). Set your location on the main map for personalized predictions.

高度履歴

Loading altitude history...

軌道要素

1 62925U 25027U 26125.38483756 .00019851 00000-0 72852-3 0 9991
2 62925 43.0023 168.6355 0001913 274.5422 85.5211 15.27599015 70218
Epoch: May 5, 2026 • Age: 7 hours

現在のステータス

高度 486.3 km
速度 7.62 km/s
衛星直下点 -18.12°S, 102.41°W
打ち上げ日 Feb 8, 2025
運用期間 1.2 years
タイプ internet

技術仕様

分類 Payload
質量 730.00 kg
乾燥質量 700.00 kg
総質量 730.00 kg
長さ 0.30 m
直径 4.10 m
スパン 29.00 m
形状 Box + pan
製造者 SPXS
バスタイプ Starlink V2M
フェーズステータス In Orbit
所有者/国 SPXS/US

Most Searched